Change the Weather History Date:

Monday, April 22, 2013

  Actual Average Record
Temperature  
Mean Temperature 52 °F 64 °F  
Max Temperature 65 °F 77 °F 93 °F (1952)
Min Temperature 39 °F 52 °F 33 °F (1950)
Degree Days  
Heating Degree Days 13 3  
Month to date heating degree days 110 116  
Since 1 July heating degree days 2712 2685  
Cooling Degree Days 0 3  
Month to date cooling degree days 59 41  
Year to date cooling degree days 67 57  
Growing Degree Days 2 (Base 50)    
Moisture  
Dew Point 40 °F    
Average Humidity 63    
Maximum Humidity 85    
Minimum Humidity 40    
Precipitation  
Precipitation T in 0.11 in 2.45 in (1992)
Month to date precipitation 2.01 2.25  
Year to date precipitation 9.32 11.86  
Sea Level Pressure  
Sea Level Pressure 30.31 in    
Wind  
Wind Speed 14 mph (NNE)    
Max Wind Speed 22 mph    
Max Gust Speed 30 mph    
Visibility 10 miles    
Events      
T = Trace of Precipitation, MM = Missing Value Source: NWS Daily Summary

Daily Weather History Graph

Daily Weather History Graph

Search for Another Location

Airport or City:

Trip Planner

Search our weather history database for the weather conditions in past years. The results will help you decide how hot, cold, wet, or windy it might be!

Date:

Astronomy

Apr. 22, 2013 Rise Set
Actual Time 6:34 AM EDT 7:53 PM EDT
Civil Twilight 6:08 AM EDT 8:20 PM EDT
Nautical Twilight 5:36 AM EDT 8:52 PM EDT
Astronomical Twilight 5:03 AM EDT 9:25 PM EDT
Moon 4:47 PM EDT (4/22) 4:20 AM EDT (4/22)
Length of Visible Light 14h 12m
Length of Day
13h 19m
Waxing Gibbous, 87% of the Moon is Illuminated
Apr 22
Waxing Gibbous
Apr 25
Full
May 2
Last Quarter
May 9
New
May 18
First Quarter

Hourly Weather History & Observations

Time (EDT) Temp. Windchill Dew Point Humidity Pressure Visibility Wind Dir Wind Speed Gust Speed Precip Events Conditions
12:53 AM 46.9 °F - 37.9 °F 71% 30.43 in 10.0 mi NE 9.2 mph - N/A   Clear
1:53 AM 44.1 °F 38.6 °F 37.0 °F 76% 30.41 in 10.0 mi NNE 10.4 mph - N/A   Clear
2:53 AM 44.1 °F 39.0 °F 34.0 °F 68% 30.39 in 10.0 mi NE 9.2 mph - N/A   Clear
3:53 AM 41.0 °F 34.7 °F 35.1 °F 79% 30.38 in 10.0 mi NNE 10.4 mph - N/A   Clear
4:53 AM 41.0 °F 35.2 °F 35.1 °F 79% 30.38 in 10.0 mi NNE 9.2 mph - N/A   Clear
5:53 AM 39.9 °F 32.9 °F 35.1 °F 83% 30.36 in 10.0 mi NNE 11.5 mph - N/A   Clear
6:53 AM 39.9 °F 32.9 °F 34.0 °F 79% 30.36 in 10.0 mi NNE 11.5 mph - N/A   Clear
7:53 AM 41.0 °F 34.7 °F 35.1 °F 79% 30.38 in 10.0 mi NNE 10.4 mph - N/A   Mostly Cloudy
8:00 AM 42.8 °F 36.6 °F 35.6 °F 76% 30.38 in 10.0 mi NNE 11.5 mph - N/A   Scattered Clouds
8:53 AM 44.1 °F 38.1 °F 36.0 °F 73% 30.37 in 10.0 mi NNE 11.5 mph - N/A   Clear
9:09 AM 44.6 °F 37.8 °F 37.4 °F 76% 30.38 in 10.0 mi NNE 15.0 mph - N/A   Mostly Cloudy
9:31 AM 48.2 °F - 37.4 °F 66% 30.38 in 10.0 mi North 18.4 mph 24.2 mph N/A   Scattered Clouds
9:53 AM 50.0 °F - 37.9 °F 63% 30.36 in 10.0 mi North 18.4 mph - N/A   Scattered Clouds
10:53 AM 55.0 °F - 39.9 °F 57% 30.37 in 10.0 mi NNE 12.7 mph 20.7 mph N/A   Scattered Clouds
11:12 AM 53.6 °F - 39.2 °F 58% 30.37 in 10.0 mi NNE 19.6 mph 23.0 mph N/A   Mostly Cloudy
11:53 AM 55.9 °F - 41.0 °F 57% 30.34 in 10.0 mi NNE 17.3 mph 21.9 mph N/A   Mostly Cloudy
12:16 PM 57.2 °F - 41.0 °F 55% 30.34 in 10.0 mi North 12.7 mph 23.0 mph N/A   Scattered Clouds
12:53 PM 59.0 °F - 41.0 °F 51% 30.31 in 10.0 mi North 17.3 mph 26.5 mph N/A   Partly Cloudy
1:53 PM 61.0 °F - 41.0 °F 48% 30.29 in 10.0 mi North 16.1 mph 23.0 mph N/A   Partly Cloudy
2:53 PM 62.1 °F - 41.0 °F 46% 30.27 in 10.0 mi North 16.1 mph 21.9 mph N/A   Mostly Cloudy
3:53 PM 64.0 °F - 39.9 °F 41% 30.24 in 10.0 mi NNE 17.3 mph 23.0 mph N/A   Scattered Clouds
4:53 PM 62.1 °F - 39.9 °F 44% 30.22 in 10.0 mi NNE 17.3 mph 21.9 mph N/A   Overcast
5:53 PM 61.0 °F - 41.0 °F 48% 30.21 in 10.0 mi NNE 16.1 mph 24.2 mph N/A   Overcast
6:53 PM 60.1 °F - 42.1 °F 51% 30.22 in 10.0 mi NNE 15.0 mph 24.2 mph N/A   Overcast
7:53 PM 57.9 °F - 43.0 °F 58% 30.22 in 10.0 mi NNE 16.1 mph 20.7 mph N/A   Overcast
8:53 PM 57.0 °F - 44.1 °F 62% 30.24 in 10.0 mi NNE 16.1 mph 24.2 mph N/A   Overcast
9:53 PM 55.0 °F - 44.1 °F 67% 30.25 in 10.0 mi NE 13.8 mph 29.9 mph N/A   Overcast
10:00 PM 55.4 °F - 44.6 °F 67% 30.26 in 10.0 mi NE 15.0 mph 25.3 mph N/A   Overcast
10:07 PM 53.6 °F - 44.6 °F 72% 30.26 in 10.0 mi NE 15.0 mph 24.2 mph N/A   Overcast
10:14 PM 53.6 °F - 44.6 °F 72% 30.26 in 10.0 mi NNE 17.3 mph 26.5 mph N/A   Overcast
10:53 PM 53.1 °F - 44.1 °F 71% 30.25 in 10.0 mi NNE 15.0 mph 23.0 mph N/A   Overcast
11:30 PM 51.8 °F - 44.6 °F 76% 30.25 in 10.0 mi NNE 12.7 mph - N/A   Overcast
11:53 PM 51.1 °F - 45.0 °F 80% 30.24 in 10.0 mi North 16.1 mph - N/A   Overcast